Regional Weather Roundup
Issued by NWS Green Bay, WI

Home | Current Version | Previous Version | Text Only | Print | Product List | Glossary On
Versions: 1 2 3 4 5 6 7 8 9 10 11 12 13 14 15 16 17 18 19 20 21 22 23 24 25 26 27 28 29 30 31 32 33 34 35 36 37 38 39 40 41 42 43 44 45 46 47 48 49 50
000
ASUS43 KGRB 062000
RWRGRB

NORTH-CENTRAL AND NORTHEAST WISCONSIN REGIONAL WEATHER ROUNDUP
NATIONAL WEATHER SERVICE GREEN BAY WI
200 PM CST SAT FEB 06 2016

WIZ005-009-010>012-018-019-062100-
NORTH CENTRAL WISCONSIN

CITY           SKY/WX    TMP DP  RH WIND       PRES   REMARKS
IRONWOOD       CLOUDY    32  21  64 S9        29.90F
MANITOWISH WTR NOT AVBL
ARBOR VITAE    NOT AVBL
EAGLE RIVER    NOT AVBL
LAND O LAKES   NOT AVBL
RHINELANDER    CLOUDY    28  20  71 SW10      29.98F
PHILLIPS       NOT AVBL
ANTIGO         NOT AVBL
TOMAHAWK       NOT AVBL
MERRILL        NOT AVBL
$$

WIZ013-073-062100-
NORTHEAST WISCONSIN

CITY           SKY/WX    TMP DP  RH WIND       PRES   REMARKS
IRON MOUNTAIN  PTSUNNY   29  19  66 SW8       29.98F
MARINETTE      CLOUDY    28  21  74 W9G17     30.05F
$$

WIZ017-030-035>037-045-062100-
CENTRAL WISCONSIN

CITY           SKY/WX    TMP DP  RH WIND       PRES   REMARKS
MEDFORD        NOT AVBL
WAUSAU         CLOUDY    31  22  69 SW9       30.02F
MOSINEE        PTSUNNY   30  25  80 SW9       30.05F
MARSHFIELD     MOSUNNY   32  21  64 SW9       30.03F
WISC RAPIDS    CLOUDY    32  22  66 SW10      30.08F
STEVENS POINT  NOT AVBL
WAUPACA        NOT AVBL
SHAWANO        NOT AVBL
CLINTONVILLE   NOT AVBL
WAUTOMA        CLOUDY    34  27  75 SW10      30.10F
$$

WIZ038-039-048-051-062100-
FOX VALLEY

CITY           SKY/WX    TMP DP  RH WIND       PRES   REMARKS
NWS GREEN BAY  CLOUDY    30  24  78 W13       30.09F
APPLETON       CLOUDY    30  23  74 SW9       30.08F
OSHKOSH        CLOUDY    31  24  75 SW8       30.10F HAZE
FOND DU LAC    CLOUDY    32  24  72 SW13      30.11F
$$

WIZ022-050-052-062100-
EAST CENTRAL WISCONSIN

CITY           SKY/WX    TMP DP  RH WIND       PRES   REMARKS
EPHRAIM        NOT AVBL
STURGEON BAY   CLOUDY    28  21  74 W12       30.09F
MANITOWOC      NOT AVBL
SHEBOYGAN      CLOUDY    31  24  75 W13       30.11F
$$

LMZ563-521-522-541>543-062100-
LAKESHORE

STATION/POSITION TIME  TEMP    WIND        PRES    VSBY  WAVE
                       AIR SEA DIR/SP/G                  HT/PER
                 (UTC) (F)     (DEG/KT/KT) (MB)    (MI)  (FT/S)
SHEBOYGAN LKSHOR 1900   31     230/ 12/ 14 1021.1F
KEWAUNEE LKSHORE 1900   29     260/ 10/ 18 1018.7F
CHAMBERS ISLAND  1900   28     220/  7/ 12 1018.3F
MENOMINEE LKSHOR 1900   28     230/ 10     1017.5F
$$



USA.gov is the U.S. government's official web portal to all federal, state and local government web resources and services.